Location: Blanot
(47.1713°N, 4.2340°E)
Time: 20:36:33
(UTC+00:00)

Meteor 1-20 Rocket - Pass Details

Date: 14 July 2020
Orbit: 820 x 891 km, 81.2° (Epoch: 14 August)

Event Time Altitude Azimuth Distance (km) Brightness Sun altitude
Exits shadow 00:58:15 36° 207° (SSW) 1,315 4.7 -19.4°
Maximum altitude 01:00:36 72° 283° (WNW) 896 4.2 -19.3°
Drops below altitude 10° 01:06:18 10° 8° (N) 2,515 7.9 -19.0°
Sets 01:08:47 0° 10° (N) 3,467 9.0 -18.9°
